User: anonymous   Login
Location: Columbia
(38.9520°N, 92.3340°W)
Time: 07:36:48
(UTC-05:00)
Language:

CZ-2C R/B - Orbit

View from above orbital plane
View from above orbital plane
View from above satellite
View from above satellite

Ground track
Ground track

The orbit data is extracted from the following two-line orbital elements,

1 28480U 04046B   16146.89807122  .00000059  00000-0  38414-4 0  9999
2 28480  98.1797 262.2769 0140863 287.7285 179.4104 14.25591592599057
Epoch (UTC): 25 May 2016 21:33:13
Eccentricity: 0.0140863
inclination: 98.1797°
perigee height: 705 km
apogee height: 908 km
right ascension of ascending node: 262.2769°
argument of perigee: 287.7285°
revolutions per day: 14.25591592
mean anomaly at epoch: 179.4104°
orbit number at epoch: 59905

The dashed part of the orbit path shows where the satellite is in the earth's shadow,  

DLR